[[{"header":{"parameterUnit":"m.s-1","parameterCategory":1,"la1":30.2991,"la2":30.254,"lo1":-89.0895,"lo2":-89.0444,"dy":0.0017,"dx":0.0017,"nx":28,"ny":28,"refTime":"2025-11-30T03:00:00:Z","depth":0,"parameterNumber":2,"parameterNumberName":"U-component_of_WINDS"},"data":[0,0,0,0,0,0,0,0,0,0,0,0,0,0,0,0,0,0,0,0,0,0,0,0,0,0,0,0,0,0,0,0,0,0,0,0,0,0,0,0,0,0,0,0,0,0,0,0,0,0,0,0,0,0,0,0,0,0,-1.4459,-1.4461,0,-1.4687,-1.469,-1.4693,-1.4681,-1.4678,-1.4675,-1.4671,-1.4918,-1.4927,-1.4937,0,0,0,0,0,0,0,0,0,0,0,0,0,-1.4025,-1.4033,-1.4458,-1.4461,-1.4464,-1.4687,-1.469,-1.4693,-1.4682,-1.4678,-1.4674,-1.467,-1.4915,-1.4926,-1.4938,0,0,0,0,0,0,0,0,0,0,0,0,0,-1.4229,-1.4035,-1.4458,-1.4485,-1.449,-1.4686,-1.469,-1.4694,-1.4683,-1.4678,-1.4673,-1.4668,-1.4911,-1.4925,-1.4939,-1.5127,0,0,-1.4983,-1.499,0,0,0,0,0,0,0,0,-1.4218,-1.4245,-1.4478,-1.4483,-1.4489,-1.465,-1.4627,-1.484,-1.4684,-1.461,-1.4671,-1.4666,-1.4834,-1.4854,-1.4908,-1.5139,-1.5149,-1.4985,-1.4993,-1.5,-1.5004,0,0,0,0,0,0,0,-1.4204,-1.4236,-1.4549,-1.4482,-1.4488,-1.449,-1.4514,-1.4668,-1.4747,-1.4616,-1.4615,-1.4642,-1.4836,-1.4894,-1.4914,-1.5153,-1.4984,-1.4997,-1.5006,-1.5012,-1.5556,-1.5562,0,0,0,0,0,0,-1.4182,-1.4224,-1.4542,-1.4556,-1.4338,-1.4502,-1.4528,-1.4604,-1.4745,-1.4762,-1.4646,-1.4641,-1.4872,-1.4897,-1.4923,-1.5157,-1.4999,-1.5013,-1.5021,-1.555,-1.5557,-1.5564,0,0,0,0,0,0,-1.4172,-1.421,-1.4533,-1.439,-1.4431,-1.4514,-1.46,-1.4611,-1.4669,-1.4768,-1.4783,-1.4691,-1.4869,-1.4902,-1.5077,-1.5165,-1.5019,-1.5033,-1.5544,-1.5553,-1.5561,-1.5624,0,0,0,0,0,0,-1.416,-1.4207,-1.4276,-1.4391,-1.4439,-1.468,-1.4605,-1.4619,-1.4693,-1.4688,-1.4814,-1.483,-1.4868,-1.5056,-1.5091,-1.5183,-1.5044,-1.5536,-1.5548,-1.5558,-1.5615,-1.5634,-1.5651,0,0,0,0,0,-1.4145,-1.4286,-1.428,-1.4318,-1.4526,-1.4685,-1.4712,-1.4749,-1.47,-1.4773,-1.4837,-1.4826,-1.5148,-1.5073,-1.5114,-1.5211,-1.5531,-1.5544,-1.5557,-1.5607,-1.563,-1.565,0,0,0,0,0,0,-1.4183,-1.4302,-1.4296,-1.4478,-1.4571,-1.4682,-1.4775,-1.4772,-1.4884,-1.4875,-1.492,-1.4949,-1.5126,-1.5185,-1.5099,-1.5403,-1.5334,-1.5356,-1.5358,-1.5381,-1.5399,-1.5383,-1.5056,0,0,0,0,0,-1.4211,-1.4326,-1.4425,-1.4577,-1.4623,-1.4691,-1.4762,-1.4782,-1.4882,-1.4922,-1.4998,-1.5099,-1.5224,-1.5305,-1.5425,-1.5622,-1.5653,-1.5709,-1.5727,-1.5741,-1.5761,-1.5876,-1.5904,-1.5607,-1.5607,-1.5606,0,0,-1.4274,-1.4353,-1.4423,-1.4587,-1.4661,-1.4784,-1.4725,-1.4856,-1.4949,-1.4943,-1.5113,-1.5173,-1.5289,-1.5477,-1.5564,-1.5532,-1.5849,-1.5757,-1.5768,-1.5781,-1.5892,-1.592,-1.5945,-1.5615,-1.5614,-1.5612,0,0,-1.4451,-1.4519,-1.4656,-1.4731,-1.4844,-1.4888,-1.4921,-1.5033,-1.5072,-1.5242,-1.5242,-1.5355,-1.5567,-1.5651,-1.5721,-1.5932,-1.593,-1.597,-1.6066,-1.6177,-1.6201,-1.6222,-1.6303,-1.6331,-1.5989,-1.5989,-1.5989,0,-1.4516,-1.4696,-1.4727,-1.486,-1.4935,-1.4931,-1.5073,-1.5146,-1.5293,-1.5347,-1.5308,-1.5576,-1.5654,-1.5864,-1.5916,-1.5971,-1.6015,-1.5958,-1.6194,-1.6215,-1.6236,-1.6314,-1.6344,-1.5994,-1.5993,-1.5993,-1.5992,0,-1.4773,-1.4899,-1.4996,-1.5135,-1.522,-1.5357,-1.5413,-1.5497,-1.551,-1.556,-1.5737,-1.5829,-1.597,-1.602,-1.6035,-1.6235,-1.6213,-1.6183,-1.6116,-1.6268,-1.6343,-1.6373,-1.6,-1.5999,-1.5997,-1.5996,0,0,-1.4982,-1.5137,-1.5173,-1.5239,-1.5363,-1.5463,-1.5602,-1.5736,-1.5809,-1.5911,-1.6033,-1.6212,-1.6187,-1.6267,-1.6292,-1.6389,-1.6558,-1.6348,-1.6352,-1.6389,-1.6791,-1.6816,-1.6849,-1.6554,-1.6559,-1.6564,-1.6783,0,-1.5176,-1.5418,-1.5451,-1.5668,-1.5788,-1.5787,-1.5909,-1.6001,-1.6052,-1.6165,-1.6222,-1.6351,-1.6304,-1.6354,-1.6449,-1.6516,-1.664,-1.65,-1.6674,-1.668,-1.665,-1.6887,-1.6914,-1.7116,-1.6812,-1.6816,-1.682,0,-1.5435,-1.5542,-1.577,-1.5881,-1.5933,-1.6041,-1.6169,-1.6275,-1.6382,-1.6412,-1.6502,-1.6516,-1.6665,-1.6587,-1.6798,-1.6702,-1.6775,-1.6819,-1.6828,-1.6851,-1.6763,-1.6922,-1.7181,-1.7213,-1.6865,-1.6861,-1.6858,0,-1.5572,-1.5773,-1.5937,-1.5992,-1.6124,-1.6202,-1.6261,-1.6362,-1.6442,-1.6555,-1.6609,-1.6738,-1.6811,-1.6914,-1.6964,-1.6902,-1.7174,-1.7099,-1.7209,-1.7209,-1.7271,-1.7267,-1.7551,-1.7308,-1.7308,-1.7307,-1.7306,0,-1.5789,-1.593,-1.6,-1.6101,-1.6261,-1.6299,-1.6458,-1.6516,-1.6606,-1.6723,-1.673,-1.684,-1.6896,-1.7017,-1.7057,-1.7229,-1.7261,-1.7294,-1.7305,-1.7297,-1.7294,-1.735,-1.7339,-1.7315,-1.7313,-1.7312,-1.731,0,-1.597,-1.6022,-1.6202,-1.6312,-1.6343,-1.6457,-1.6554,-1.6655,-1.6704,-1.6852,-1.6889,-1.6969,-1.7111,-1.717,-1.7345,-1.7373,-1.7572,-1.7568,-1.7535,-1.754,-1.7649,-1.7641,-1.7983,-1.8033,-1.7752,-1.7754,-1.7756,0,-1.6107,-1.6216,-1.6338,-1.6414,-1.6476,-1.6599,-1.6681,-1.6723,-1.6809,-1.694,-1.7027,-1.7168,-1.7284,-1.7512,-1.759,-1.7725,-1.7729,-1.7839,-1.775,-1.774,-1.7738,-1.7734,-1.7748,-1.7858,-1.7861,-1.7863,-1.7865,0,-1.6348,-1.6368,-1.6483,-1.6609,-1.6705,-1.6807,-1.6906,-1.697,-1.7029,-1.7125,-1.7269,-1.7358,-1.7537,-1.768,-1.782,-1.7887,-1.789,-1.7891,-1.7926,-1.7922,-1.7901,-1.792,-1.7587,-1.7885,-1.7883,-1.7881,-1.788,-1.788,-1.6516,-1.6614,-1.6716,-1.6845,-1.6923,-1.7017,-1.7118,-1.718,-1.7299,-1.7446,-1.7465,-1.7621,-1.773,-1.7917,-1.799,-1.8116,-1.8089,-1.8136,-1.815,-1.8163,-1.8173,-1.7875,-1.8141,-1.8141,-1.814,-1.814,-1.814,0,-1.6761,-1.6827,-1.6945,-1.7083,-1.7186,-1.7173,-1.7283,-1.7372,-1.7508,-1.7607,-1.772,-1.7889,-1.8028,-1.8115,-1.8257,-1.8342,-1.8347,-1.8379,-1.8376,-1.8393,-1.8186,-1.8145,-1.8372,-1.8372,-1.8372,-1.8372,-1.8372,-1.8372,-1.6902,-1.7069,-1.7102,-1.731,-1.7376,-1.7526,-1.7591,-1.768,-1.7759,-1.7946,-1.806,-1.8114,-1.8212,-1.8361,-1.849,-1.8512,-1.8567,-1.8602,-1.8624,-1.843,-1.8406,-1.8384,-1.8346,-1.8612,-1.8612,-1.8821,-1.8823,-1.8824]},{"header":{"parameterUnit":"m.s-1","parameterCategory":1,"la1":30.2991,"la2":30.254,"lo1":-89.0895,"lo2":-89.0444,"dy":0.0017,"dx":0.0017,"nx":28,"ny":28,"refTime":"2025-11-30T03:00:00:Z","depth":0,"parameterNumber":3,"parameterNumberName":"V-component_of_WINDS"},"data":[0,0,0,0,0,0,0,0,0,0,0,0,0,0,0,0,0,0,0,0,0,0,0,0,0,0,0,0,0,0,0,0,0,0,0,0,0,0,0,0,0,0,0,0,0,0,0,0,0,0,0,0,0,0,0,0,0,0,-4.7385,-4.7385,0,-4.7376,-4.7375,-4.7375,-4.7332,-4.7331,-4.733,-4.7329,-4.7318,-4.7319,-4.7319,0,0,0,0,0,0,0,0,0,0,0,0,0,-4.7365,-4.7365,-4.7385,-4.7385,-4.7384,-4.7376,-4.7375,-4.7375,-4.7332,-4.7331,-4.7329,-4.7328,-4.7318,-4.7319,-4.732,0,0,0,0,0,0,0,0,0,0,0,0,0,-4.7366,-4.7366,-4.7385,-4.7362,-4.736,-4.7376,-4.7375,-4.7375,-4.7332,-4.7331,-4.7329,-4.7328,-4.7318,-4.7319,-4.732,-4.7357,0,0,-4.7323,-4.7323,0,0,0,0,0,0,0,0,-4.7366,-4.7367,-4.7365,-4.7363,-4.7361,-4.7353,-4.7365,-4.7369,-4.7332,-4.7342,-4.7329,-4.7327,-4.7331,-4.7331,-4.7332,-4.7356,-4.7356,-4.7323,-4.7323,-4.7324,-4.7324,0,0,0,0,0,0,0,-4.7366,-4.7367,-4.7381,-4.7365,-4.7363,-4.7352,-4.735,-4.7365,-4.7345,-4.7341,-4.7338,-4.7338,-4.7329,-4.7332,-4.7332,-4.7356,-4.7323,-4.7324,-4.7324,-4.7325,-4.7411,-4.7412,0,0,0,0,0,0,-4.7369,-4.7367,-4.7381,-4.7381,-4.736,-4.7354,-4.7352,-4.7357,-4.7345,-4.7342,-4.7339,-4.7336,-4.7331,-4.7331,-4.7331,-4.7374,-4.7324,-4.7325,-4.7325,-4.7409,-4.7411,-4.7413,0,0,0,0,0,0,-4.7369,-4.7371,-4.7382,-4.7373,-4.7374,-4.7356,-4.7362,-4.7358,-4.736,-4.7343,-4.734,-4.7345,-4.7329,-4.733,-4.7351,-4.7373,-4.7325,-4.7326,-4.7407,-4.741,-4.7412,-4.7461,0,0,0,0,0,0,-4.7369,-4.7371,-4.7385,-4.7374,-4.7374,-4.7402,-4.7363,-4.7359,-4.7362,-4.7357,-4.7348,-4.7345,-4.7328,-4.735,-4.7352,-4.7374,-4.7327,-4.7405,-4.7408,-4.7411,-4.7457,-4.7465,-4.7471,0,0,0,0,0,-4.7368,-4.7398,-4.7386,-4.7388,-4.7391,-4.7403,-4.7403,-4.7384,-4.7364,-4.7377,-4.7367,-4.7345,-4.7371,-4.7352,-4.7355,-4.7377,-4.7403,-4.7407,-4.7411,-4.7454,-4.7463,-4.7471,0,0,0,0,0,0,-4.7412,-4.7396,-4.7382,-4.741,-4.7408,-4.7396,-4.7412,-4.7394,-4.7398,-4.7393,-4.7369,-4.7367,-4.7392,-4.7387,-4.7366,-4.7413,-4.7384,-4.7388,-4.7415,-4.7424,-4.7431,-4.7431,-4.7328,0,0,0,0,0,-4.7425,-4.7436,-4.7422,-4.7447,-4.7447,-4.743,-4.7435,-4.742,-4.7417,-4.7416,-4.7407,-4.7405,-4.7413,-4.7418,-4.7424,-4.7457,-4.7454,-4.7473,-4.748,-4.7486,-4.749,-4.7507,-4.7516,-4.7425,-4.7425,-4.7425,0,0,-4.7451,-4.7444,-4.7452,-4.7456,-4.7453,-4.7465,-4.743,-4.7444,-4.7452,-4.7418,-4.7437,-4.7431,-4.7427,-4.7455,-4.7466,-4.7451,-4.7515,-4.7491,-4.7496,-4.7496,-4.7512,-4.7521,-4.7528,-4.7428,-4.7427,-4.7427,0,0,-4.7505,-4.7501,-4.7523,-4.7521,-4.7517,-4.7506,-4.7511,-4.7502,-4.7496,-4.7516,-4.7491,-4.7501,-4.7515,-4.7513,-4.7514,-4.7571,-4.755,-4.7574,-4.761,-4.7627,-4.7634,-4.764,-4.766,-4.7668,-4.7578,-4.7578,-4.7578,0,-4.7538,-4.7556,-4.7536,-4.7552,-4.7554,-4.7525,-4.7547,-4.7546,-4.7544,-4.7547,-4.753,-4.7548,-4.7543,-4.757,-4.7584,-4.7586,-4.7591,-4.7574,-4.7635,-4.7641,-4.7646,-4.7665,-4.7673,-4.758,-4.758,-4.758,-4.758,0,-4.7597,-4.7609,-4.7627,-4.7627,-4.7632,-4.7651,-4.7634,-4.7642,-4.7627,-4.7618,-4.7639,-4.7633,-4.7637,-4.7643,-4.7629,-4.7668,-4.7659,-4.7639,-4.7609,-4.7658,-4.7675,-4.7683,-4.7585,-4.7584,-4.7583,-4.7582,0,0,-4.7676,-4.7667,-4.7674,-4.7674,-4.7669,-4.7678,-4.7696,-4.7701,-4.7708,-4.7709,-4.7723,-4.7737,-4.7719,-4.772,-4.7706,-4.7721,-4.7767,-4.7699,-4.7699,-4.7712,-4.781,-4.7825,-4.7834,-4.7754,-4.7755,-4.7756,-4.781,0,-4.7728,-4.7758,-4.7742,-4.7775,-4.7786,-4.776,-4.7776,-4.7774,-4.7767,-4.7776,-4.7767,-4.7777,-4.7752,-4.7753,-4.7767,-4.7758,-4.7786,-4.7754,-4.7767,-4.7768,-4.7768,-4.7843,-4.7858,-4.7909,-4.7817,-4.7818,-4.7819,0,-4.7792,-4.7797,-4.7831,-4.7824,-4.7829,-4.7843,-4.7848,-4.7857,-4.7855,-4.7848,-4.7851,-4.7834,-4.7851,-4.7823,-4.7847,-4.7825,-4.783,-4.7827,-4.7828,-4.7828,-4.7796,-4.7844,-4.7925,-4.7932,-4.783,-4.7829,-4.7828,0,-4.7847,-4.7861,-4.7884,-4.7885,-4.7878,-4.7889,-4.7887,-4.7884,-4.7889,-4.7893,-4.7896,-4.7902,-4.7905,-4.791,-4.7895,-4.7875,-4.7921,-4.7891,-4.7916,-4.7916,-4.7926,-4.7925,-4.8008,-4.793,-4.793,-4.793,-4.793,0,-4.7906,-4.7928,-4.7908,-4.7922,-4.7946,-4.7928,-4.7952,-4.7947,-4.7945,-4.7957,-4.7935,-4.7947,-4.7926,-4.7937,-4.7925,-4.7947,-4.7949,-4.7944,-4.794,-4.7945,-4.7946,-4.7947,-4.7943,-4.7932,-4.7931,-4.7931,-4.7931,0,-4.7971,-4.7958,-4.7981,-4.7974,-4.7973,-4.7991,-4.7984,-4.7997,-4.7988,-4.8004,-4.8007,-4.7994,-4.8005,-4.7991,-4.8,-4.7992,-4.8022,-4.8014,-4.8023,-4.802,-4.8046,-4.8044,-4.8132,-4.8143,-4.8059,-4.8059,-4.806,0,-4.8009,-4.8025,-4.802,-4.8027,-4.8027,-4.8038,-4.8043,-4.8026,-4.8033,-4.8033,-4.8046,-4.8055,-4.8062,-4.8081,-4.8072,-4.8079,-4.807,-4.8101,-4.8071,-4.8076,-4.807,-4.8069,-4.8071,-4.8107,-4.8108,-4.8108,-4.8109,0,-4.8078,-4.8072,-4.808,-4.8088,-4.8095,-4.8099,-4.8102,-4.8109,-4.8091,-4.81,-4.8111,-4.8116,-4.8127,-4.8136,-4.8142,-4.8139,-4.8121,-4.8119,-4.8125,-4.813,-4.8134,-4.8132,-4.8039,-4.8116,-4.8116,-4.8115,-4.8115,-4.8114,-4.8131,-4.8144,-4.8143,-4.8154,-4.8155,-4.8158,-4.817,-4.8164,-4.8173,-4.818,-4.817,-4.8184,-4.8184,-4.8189,-4.8189,-4.82,-4.8187,-4.8196,-4.8198,-4.82,-4.8204,-4.8134,-4.8201,-4.8201,-4.82,-4.82,-4.82,0,-4.8199,-4.8197,-4.8207,-4.8212,-4.8221,-4.8205,-4.8207,-4.8215,-4.8229,-4.823,-4.8237,-4.8251,-4.826,-4.8253,-4.8261,-4.8271,-4.8264,-4.8274,-4.8273,-4.8272,-4.8215,-4.8209,-4.828,-4.828,-4.828,-4.828,-4.828,-4.828,-4.8235,-4.8258,-4.8251,-4.8274,-4.8272,-4.8287,-4.829,-4.8293,-4.8294,-4.831,-4.8319,-4.8314,-4.8312,-4.832,-4.8328,-4.8326,-4.833,-4.8343,-4.8338,-4.8284,-4.8276,-4.8269,-4.8263,-4.8344,-4.8344,-4.8394,-4.8394,-4.8395]}]]